Météo par heure à Al-Ladikija

Ce jour, 15 Mai, Samedi

Heure Température Précipitation Vent Pression Humidité
00:00 +20°C° 0 mm 1 m/s 758 mmHg 75%
01:00 +20°C° 0 mm 1 m/s 757 mmHg 75%
02:00 +20°C° 0 mm 1 m/s 757 mmHg 77%
03:00 +20°C° 0 mm 1 m/s 757 mmHg 78%
04:00 +20°C° 0 mm 1 m/s 757 mmHg 80%
05:00 +20°C° 0 mm 1 m/s 757 mmHg 81%
06:00 +22°C° 0 mm 1 m/s 757 mmHg 74%
07:00 +24°C° 0 mm 1 m/s 757 mmHg 67%
08:00 +26°C° 0 mm 1 m/s 757 mmHg 60%
09:00 +26°C° 0 mm 1 m/s 757 mmHg 57%
10:00 +27°C° 0 mm 2 m/s 757 mmHg 55%
11:00 +28°C° 0 mm 2 m/s 757 mmHg 53%
12:00 +28°C° 0 mm 2 m/s 757 mmHg 53%
13:00 +28°C° 0 mm 3 m/s 756 mmHg 54%
14:00 +28°C° 0 mm 3 m/s 756 mmHg 54%
15:00 +27°C° 0 mm 3 m/s 756 mmHg 56%
16:00 +26°C° 0 mm 3 m/s 756 mmHg 58%
17:00 +26°C° 0 mm 3 m/s 755 mmHg 60%
18:00 +24°C° 0 mm 3 m/s 755 mmHg 67%
19:00 +21°C° 0 mm 3 m/s 756 mmHg 74%
20:00 +20°C° 0 mm 2 m/s 756 mmHg 81%
21:00 +19°C° 0 mm 2 m/s 756 mmHg 83%
22:00 +19°C° 0 mm 2 m/s 755 mmHg 86%
23:00 +19°C° 0 mm 2 m/s 755 mmHg 88%

Demain, 16 Mai, Dimanche

Heure Température Précipitation Vent Pression Humidité
00:00 +19°C° 0 mm 2 m/s 755 mmHg 85%
01:00 +19°C° 0 mm 2 m/s 755 mmHg 82%
02:00 +18°C° 0 mm 2 m/s 755 mmHg 79%
03:00 +18°C° 0 mm 2 m/s 755 mmHg 80%
04:00 +18°C° 0 mm 2 m/s 755 mmHg 80%
05:00 +18°C° 0 mm 3 m/s 755 mmHg 81%
06:00 +20°C° 0 mm 3 m/s 755 mmHg 71%
07:00 +22°C° 0 mm 3 m/s 755 mmHg 61%
08:00 +26°C° 0 mm 3 m/s 755 mmHg 50%
09:00 +26°C° 0 mm 3 m/s 755 mmHg 50%
10:00 +27°C° 0 mm 3 m/s 755 mmHg 50%
11:00 +28°C° 0 mm 3 m/s 755 mmHg 50%
12:00 +28°C° 0 mm 3 m/s 755 mmHg 49%
13:00 +28°C° 0 mm 3 m/s 755 mmHg 49%
14:00 +28°C° 0 mm 3 m/s 754 mmHg 49%
15:00 +27°C° 0 mm 3 m/s 754 mmHg 52%
16:00 +26°C° 0 mm 3 m/s 754 mmHg 55%
17:00 +25°C° 0 mm 4 m/s 754 mmHg 58%
18:00 +24°C° 0 mm 3 m/s 754 mmHg 64%
19:00 +22°C° 0 mm 3 m/s 754 mmHg 71%
20:00 +21°C° 0 mm 3 m/s 754 mmHg 77%
21:00 +20°C° 0 mm 2 m/s 754 mmHg 75%
22:00 +20°C° 0 mm 2 m/s 754 mmHg 74%
23:00 +20°C° 0 mm 2 m/s 754 mmHg 73%

Après-demain, 17 Mai, Lundi

Heure Température Précipitation Vent Pression Humidité
00:00 +20°C° 0 mm 2 m/s 754 mmHg 72%
01:00 +19°C° 0 mm 2 m/s 753 mmHg 71%
02:00 +19°C° 0 mm 2 m/s 753 mmHg 70%
03:00 +19°C° 0 mm 2 m/s 753 mmHg 68%
04:00 +19°C° 0 mm 2 m/s 754 mmHg 66%
05:00 +19°C° 0 mm 2 m/s 754 mmHg 64%
06:00 +21°C° 0 mm 2 m/s 754 mmHg 59%
07:00 +24°C° 0 mm 3 m/s 754 mmHg 55%
08:00 +25°C° 0 mm 3 m/s 755 mmHg 51%
09:00 +26°C° 0 mm 3 m/s 755 mmHg 51%
10:00 +27°C° 0 mm 3 m/s 755 mmHg 51%
11:00 +27°C° 0 mm 3 m/s 755 mmHg 51%
12:00 +27°C° 0 mm 4 m/s 755 mmHg 50%
13:00 +27°C° 0 mm 4 m/s 755 mmHg 50%
14:00 +27°C° 0 mm 4 m/s 755 mmHg 50%
15:00 +26°C° 0 mm 4 m/s 755 mmHg 53%
16:00 +25°C° 0 mm 4 m/s 755 mmHg 56%
17:00 +25°C° 0 mm 4 m/s 755 mmHg 58%
18:00 +22°C° 0 mm 4 m/s 755 mmHg 66%
19:00 +21°C° 0 mm 3 m/s 756 mmHg 74%
20:00 +19°C° 0 mm 3 m/s 756 mmHg 82%
21:00 +19°C° 0 mm 3 m/s 757 mmHg 82%
22:00 +19°C° 0 mm 2 m/s 757 mmHg 82%
23:00 +19°C° 0 mm 2 m/s 757 mmHg 82%

18 Mai, Mardi

Heure Température Précipitation Vent Pression Humidité
00:00 +19°C° 0 mm 2 m/s 756 mmHg 83%
01:00 +18°C° 0 mm 2 m/s 756 mmHg 83%
02:00 +18°C° 0 mm 2 m/s 756 mmHg 84%
03:00 +18°C° 0 mm 2 m/s 756 mmHg 85%
04:00 +19°C° 0 mm 1 m/s 757 mmHg 86%
05:00 +20°C° 0 mm 1 m/s 757 mmHg 86%
06:00 +21°C° 0 mm 1 m/s 757 mmHg 79%
07:00 +23°C° 0 mm 1 m/s 757 mmHg 71%
08:00 +25°C° 0 mm 1 m/s 758 mmHg 64%
09:00 +26°C° 0 mm 2 m/s 758 mmHg 59%
10:00 +27°C° 0 mm 2 m/s 758 mmHg 55%
11:00 +29°C° 0 mm 2 m/s 758 mmHg 51%
12:00 +29°C° 0 mm 2 m/s 757 mmHg 51%
13:00 +29°C° 0 mm 2 m/s 757 mmHg 51%
14:00 +29°C° 0 mm 2 m/s 757 mmHg 51%
15:00 +28°C° 0 mm 2 m/s 757 mmHg 53%
16:00 +27°C° 0 mm 2 m/s 757 mmHg 56%
17:00 +26°C° 0 mm 1 m/s 757 mmHg 58%
18:00 +25°C° 0 mm 1 m/s 757 mmHg 64%
19:00 +23°C° 0 mm 1 m/s 757 mmHg 69%
20:00 +20°C° 0 mm 0 m/s 758 mmHg 74%
21:00 +21°C° 0 mm 1 m/s 757 mmHg 72%
22:00 +21°C° 0 mm 1 m/s 757 mmHg 70%
23:00 +21°C° 0 mm 1 m/s 757 mmHg 68%

19 Mai, Mercredi

Heure Température Précipitation Vent Pression Humidité
00:00 +21°C° 0 mm 1 m/s 757 mmHg 69%
01:00 +21°C° 0 mm 1 m/s 757 mmHg 70%
02:00 +20°C° 0 mm 2 m/s 757 mmHg 71%
03:00 +21°C° 0 mm 1 m/s 757 mmHg 71%
04:00 +21°C° 0 mm 1 m/s 757 mmHg 71%
05:00 +21°C° 0 mm 1 m/s 757 mmHg 72%
06:00 +23°C° 0 mm 1 m/s 757 mmHg 64%
07:00 +25°C° 0 mm 1 m/s 757 mmHg 56%
08:00 +28°C° 0 mm 1 m/s 757 mmHg 48%
09:00 +29°C° 0 mm 2 m/s 757 mmHg 46%
10:00 +30°C° 0 mm 2 m/s 757 mmHg 44%
11:00 +31°C° 0 mm 3 m/s 757 mmHg 42%
12:00 +31°C° 0 mm 3 m/s 757 mmHg 42%
13:00 +31°C° 0 mm 3 m/s 757 mmHg 43%
14:00 +31°C° 0 mm 3 m/s 756 mmHg 43%
15:00 +30°C° 0 mm 3 m/s 756 mmHg 44%
16:00 +29°C° 0 mm 2 m/s 756 mmHg 45%
17:00 +28°C° 0 mm 2 m/s 756 mmHg 46%
18:00 +26°C° 0 mm 1 m/s 756 mmHg 52%
19:00 +25°C° 0 mm 1 m/s 756 mmHg 57%
20:00 +23°C° 0 mm 1 m/s 756 mmHg 62%
21:00 +23°C° 0 mm 1 m/s 756 mmHg 63%
22:00 +23°C° 0 mm 1 m/s 756 mmHg 63%
23:00 +22°C° 0 mm 1 m/s 756 mmHg 64%

20 Mai, Jeudi

Heure Température Précipitation Vent Pression Humidité
00:00 +22°C° 0 mm 1 m/s 756 mmHg 67%
01:00 +21°C° 0 mm 2 m/s 756 mmHg 69%
02:00 +21°C° 0 mm 2 m/s 755 mmHg 72%
03:00 +22°C° 0 mm 1 m/s 755 mmHg 73%
04:00 +22°C° 0 mm 1 m/s 756 mmHg 75%
05:00 +22°C° 0 mm 1 m/s 756 mmHg 76%
06:00 +24°C° 0 mm 1 m/s 756 mmHg 67%
07:00 +26°C° 0 mm 1 m/s 756 mmHg 57%
08:00 +28°C° 0 mm 1 m/s 756 mmHg 48%
09:00 +29°C° 0 mm 2 m/s 756 mmHg 45%
10:00 +31°C° 0 mm 3 m/s 756 mmHg 42%
11:00 +33°C° 0 mm 3 m/s 755 mmHg 39%
12:00 +33°C° 0 mm 3 m/s 755 mmHg 39%
13:00 +33°C° 0 mm 3 m/s 755 mmHg 39%
14:00 +31°C° 0 mm 3 m/s 755 mmHg 38%
15:00 +31°C° 0 mm 3 m/s 755 mmHg 40%
16:00 +30°C° 0 mm 3 m/s 754 mmHg 42%
17:00 +29°C° 0 mm 2 m/s 754 mmHg 44%
18:00 +27°C° 0 mm 2 m/s 754 mmHg 50%
19:00 +25°C° 0 mm 1 m/s 754 mmHg 55%
20:00 +23°C° 0 mm 1 m/s 755 mmHg 61%
21:00 +23°C° 0 mm 1 m/s 755 mmHg 61%
22:00 +23°C° 0 mm 1 m/s 755 mmHg 61%
23:00 +22°C° 0 mm 1 m/s 755 mmHg 62%
Voir plus

Nous avons besoin de votre consentement

Meteoprog et ses fournisseurs de services peuvent stocker et accéder à des données personnelles telles que des cookies, des identifiants d'appareils ou d'autres technologies similaires sur votre appareil et traiter ces données pour personnaliser le contenu et les publicités, ainsi que pour fournir des fonctionnalités de médias sociaux et analyser le trafic.

  • Stocker et/ou accéder à des informations sur votre appareil

    Des cookies, des identifiants d'appareils ou d'autres informations peuvent être stockés ou accessibles sur votre appareil aux fins indiquées ci-dessus.

  • Annonces et contenus personnalisés, mesure des annonces et des contenus, connaissance de l'audience et développement de produits

    Les annonces et le contenu peuvent être personnalisés en fonction d'un profil. D'autres données peuvent être ajoutées pour mieux personnaliser les annonces et le contenu. Les performances des publicités et du contenu peuvent être mesurées. Il est possible d'obtenir des informations sur le public qui a vu les publicités et le contenu. Ces données peuvent être utilisées pour développer ou améliorer l'expérience de l'utilisateur, les systèmes et les logiciels.

En cliquant sur "J'accepte", vous autorisez l'utilisation de cookies, des identifiants d'appareils, des balises web ou d'autres technologies similaires. Vos paramètres peuvent être modifiés dans le navigateur de votre appareil.

Dans certains cas, des intérêts légitimes peuvent être invoqués plutôt qu'un consentement. Vous pouvez en savoir plus à ce sujet dans notre Politique de confidentialité et de cookies.